CZ-4 DEB, 26449

Orbit data source: Space-Track

CZ-4 DEB, 26449 is space debris in SSO originally from a launch on Thu, 14 Oct 1999 UTC launched from the Taiyaun Space Center, China (TSC). Debris objects in space refer to the collection of defunct objects orbiting the Earth. Examples of debris include non-operational satellites, rocket bodies, and fragments generated from explosions, collisions, or faulty payload assembly.

Loading next visibility...
Identifier
26449, 1999-057KW
Orbit
SSO
Country
Flag of CNCN / PRC
Related business
Manufacturer
Unknown
Mission
Spacecraft
Bus & Motor
Unknown
Mass
Unknown
Launch date (UTC)
1999-10-14 (26 years ago)
Launch vehicle
Unknown
Launch site
Taiyaun Space Center, China (TSC)
Object type
Payload
Rocket body
Debris
Shape & HBR
Unknown shape, 0.1 m
Radar Cross Section
Small (<0.1 m²)

Expand to show TLE details & history
Last TLE update: 8 hours ago

TLE from 8 hours ago
0 CZ-4 DEB
1 26449U 99057KW  26038.14183927  .00002141  00000-0  53521-3 0  9996
2 26449  98.5261 103.3500 0076590 276.6454 136.8539 14.50846559359707
Epoch: 2026-02-07T03:24Z
TLE epoch observation values (Epoch: 2026-02-07T03:24:14.912Z)
Latitude
53.33104°
Longitude
-96.53536°
Altitude
771.479 km
Speed
7.452 km/s
True Right ascension
06h 07m 11s
True Declination
53° 09' 59"
Sunlit
Object was in full shadow at epoch
Visualization orbit readout
Latitude
Unknown
Longitude
Unknown
Altitude
Unknown
Speed
Unknown
Apparent Right ascension
Unknown
Apparent Declination
Unknown
Sunlit
N/A
Visualization observer readout
Local Sidereal Time
13:34:18
Azimuth
Unknown
Elevation
Unknown
Doppler factor
Unknown
Orbital elements
Apogee altitude
774.358 km
Perigee altitude
665.629 km
Semi-major axis
7,098.13 km
Eccentricity
0.00766
Inclination
98.5261°
RAAN
103.35°
Arg. of periapsis
276.6454°
True anomaly
137.44992°
Mean anomaly
136.8539°
Eccentric anomaly
137.15233°
Mean motion
3.62934 °/min
Orbital period
99.19 mins
BSTAR
0.00053521
Loading maneuver chart data...
Computing Atmospheric mass density...

Documentation

Showing up to 5 results
|